Location: Trebic
(49.2170°N, 15.8830°E)
Time: 10:43:51
(UTC+02:00)

Courier 1B Rocket - Visible Passes

Search period start: 10 August 2020 00:00
Search period end: 20 August 2020 00:00
Orbit: 920 x 1202 km, 28.2° (Epoch: 09 August)

Date Brightness Start Highest point End Pass type
(mag) Time Alt. Az. Time Alt. Az. Time Alt. Az.
10 Aug 7.0 05:01:47 10° S 05:03:07 11° S 05:04:28 10° SSE visible
12 Aug 6.9 04:52:23 10° S 04:53:52 11° S 04:55:24 10° SSE visible
14 Aug 6.9 04:43:55 10° S 04:44:40 10° S 04:45:25 10° S visible
